TimeCET,TemperatureF,Dew PointF,Humidity,Sea Level PressureIn,VisibilityMPH,Wind Direction,Wind SpeedMPH,Gust SpeedMPH,PrecipitationIn,Events,Conditions,WindDirDegrees,DateUTC
12:20 AM,48.2,42.8,82,30.18,5.0,NW,4.6,-,N/A,,Unknown,310,2011-11-20 23:20:00
12:50 AM,46.4,41.0,81,30.15,5.0,NNW,4.6,-,N/A,,Unknown,340,2011-11-20 23:50:00
1:00 AM,49,42,69,30.18,6,North,5.8,,,,,350,2011-11-21 00:00:00
1:20 AM,48.2,42.8,82,30.15,5.0,North,5.8,-,N/A,,Unknown,350,2011-11-21 00:20:00
1:50 AM,48.2,41.0,76,30.15,5.0,North,5.8,-,N/A,,Unknown,350,2011-11-21 00:50:00
2:20 AM,48.2,41.0,76,30.15,5.0,North,5.8,-,N/A,,Unknown,10,2011-11-21 01:20:00
2:50 AM,48.2,41.0,76,30.15,5.0,North,5.8,-,N/A,,Unknown,350,2011-11-21 01:50:00
3:20 AM,48.2,41.0,76,30.15,5.0,NNW,3.5,-,N/A,,Unknown,340,2011-11-21 02:20:00
3:50 AM,48.2,41.0,76,30.15,5.0,North,4.6,-,N/A,,Unknown,350,2011-11-21 02:50:00
4:00 AM,48,41,70,30.16,6,North,5.8,,,,,350,2011-11-21 03:00:00
4:20 AM,48.2,41.0,76,30.12,5.0,North,5.8,-,N/A,,Unknown,10,2011-11-21 03:20:00
4:50 AM,46.4,41.0,81,30.12,5.0,NNW,3.5,-,N/A,,Unknown,340,2011-11-21 03:50:00
5:20 AM,46.4,41.0,81,30.12,5.0,NW,5.8,-,N/A,,Unknown,320,2011-11-21 04:20:00
5:50 AM,48.2,41.0,76,30.12,5.0,North,5.8,-,N/A,,Unknown,350,2011-11-21 04:50:00
6:20 AM,48.2,41.0,76,30.12,5.0,North,5.8,-,N/A,,Unknown,360,2011-11-21 05:20:00
6:50 AM,48.2,41.0,76,30.12,-9999.0,NNW,5.8,-,N/A,,Clear,330,2011-11-21 05:50:00
7:00 AM,48,42,72,30.15,6,NNW,5.8,,,,,330,2011-11-21 06:00:00
7:20 AM,48.2,42.8,82,30.15,6.2,NNW,5.8,-,N/A,,Partly Cloudy,330,2011-11-21 06:20:00
7:50 AM,50.0,42.8,76,30.15,6.2,NNW,4.6,-,N/A,,Partly Cloudy,340,2011-11-21 06:50:00
8:20 AM,51.8,42.8,71,30.15,6.2,North,5.8,-,N/A,,Partly Cloudy,360,2011-11-21 07:20:00
8:50 AM,51.8,44.6,76,30.15,6.2,North,6.9,-,N/A,,Partly Cloudy,360,2011-11-21 07:50:00
9:20 AM,53.6,44.6,72,30.15,-9999.0,NNW,4.6,-,N/A,,Clear,340,2011-11-21 08:20:00
9:50 AM,57.2,44.6,63,30.15,-9999.0,North,5.8,-,N/A,,Clear,350,2011-11-21 08:50:00
10:00 AM,57,45,55,30.18,19,North,5.8,,,,,350,2011-11-21 09:00:00
10:20 AM,57.2,46.4,67,30.15,-9999.0,North,5.8,-,N/A,,Clear,360,2011-11-21 09:20:00
10:50 AM,59.0,46.4,63,30.15,-9999.0,North,6.9,-,N/A,,Clear,360,2011-11-21 09:50:00
11:20 AM,60.8,48.2,63,30.12,-9999.0,North,6.9,-,N/A,,Clear,360,2011-11-21 10:20:00
11:50 AM,62.6,48.2,59,30.12,-9999.0,North,5.8,-,N/A,,Clear,360,2011-11-21 10:50:00
12:20 PM,62.6,48.2,59,30.12,6.2,North,5.8,-,N/A,,Partly Cloudy,360,2011-11-21 11:20:00
12:50 PM,64.4,48.2,56,30.09,6.2,North,6.9,-,N/A,,Partly Cloudy,10,2011-11-21 11:50:00
1:00 PM,65,49,45,30.12,19,North,5.8,,,,,0,2011-11-21 12:00:00
1:20 PM,-9999,-9999,N/A,-9999,6.2,NNE,4.6,-,N/A,,Partly Cloudy,20,2011-11-21 12:20:00
1:50 PM,66.2,48.2,52,30.09,6.2,North,3.5,-,N/A,,Partly Cloudy,360,2011-11-21 12:50:00
2:20 PM,64.4,48.2,56,30.09,6.2,Variable,2.3,-,N/A,,Partly Cloudy,0,2011-11-21 13:20:00
2:50 PM,64.4,48.2,56,30.09,-9999.0,NNE,5.8,-,N/A,,Clear,30,2011-11-21 13:50:00
3:20 PM,64.4,48.2,56,30.09,-9999.0,NNE,4.6,-,N/A,,Clear,20,2011-11-21 14:20:00
3:50 PM,62.6,48.2,59,30.06,-9999.0,NNE,5.8,-,N/A,,Clear,30,2011-11-21 14:50:00
4:00 PM,62,48,50,30.09,12,NNE,5.8,,,,,20,2011-11-21 15:00:00
4:20 PM,62.6,48.2,59,30.06,-9999.0,NNE,8.1,-,N/A,,Clear,30,2011-11-21 15:20:00
4:50 PM,59.0,48.2,67,30.06,6.2,Variable,2.3,-,N/A,,Scattered Clouds,0,2011-11-21 15:50:00
5:20 PM,59.0,48.2,67,30.06,6.2,Variable,2.3,-,N/A,,Scattered Clouds,0,2011-11-21 16:20:00
5:50 PM,59.0,48.2,67,30.06,6.2,North,3.5,-,N/A,,Scattered Clouds,10,2011-11-21 16:50:00
6:20 PM,59.0,48.2,67,30.06,6.2,NNE,6.9,-,N/A,,Scattered Clouds,30,2011-11-21 17:20:00
6:50 PM,57.2,48.2,72,30.06,5.0,NNE,3.5,-,N/A,,Unknown,20,2011-11-21 17:50:00
7:00 PM,57,48,65,30.07,5,NNE,6.9,,,,,30,2011-11-21 18:00:00
7:20 PM,57.2,48.2,72,30.06,5.0,NNE,4.6,-,N/A,,Unknown,20,2011-11-21 18:20:00
7:50 PM,55.4,48.2,77,30.06,5.0,North,4.6,-,N/A,,Partly Cloudy,360,2011-11-21 18:50:00
8:20 PM,55.4,48.2,77,30.06,5.0,North,4.6,-,N/A,,Partly Cloudy,360,2011-11-21 19:20:00
8:50 PM,55.4,48.2,77,30.06,5.0,North,5.8,-,N/A,,Partly Cloudy,10,2011-11-21 19:50:00
9:20 PM,57.2,48.2,72,30.06,5.0,North,5.8,-,N/A,,Partly Cloudy,10,2011-11-21 20:20:00
9:50 PM,55.4,48.2,77,30.04,5.0,North,4.6,-,N/A,,Partly Cloudy,10,2011-11-21 20:50:00
10:00 PM,57,48,63,30.06,5,North,4.6,,,,,10,2011-11-21 21:00:00
10:20 PM,55.4,46.4,72,30.04,5.0,North,4.6,-,N/A,,Partly Cloudy,360,2011-11-21 21:20:00
10:50 PM,55.4,48.2,77,30.04,5.0,North,4.6,-,N/A,,Partly Cloudy,350,2011-11-21 21:50:00
11:20 PM,55.4,48.2,77,30.04,5.0,North,5.8,-,N/A,,Partly Cloudy,350,2011-11-21 22:20:00